| time (UTC) | temp F | wind direction | speed knots | gust knots | rain 1hr in | rain 24hr in | rain mn in | humidity % | barometer mb |
| 20260504201553 | 60 | 0 | 0.0 | 2.6 | 0.00 | 0.22 | 0.22 | 90 | 1011.6 |
| 20260504194558 | 61 | 0 | 0.9 | 5.2 | 0.00 | 0.22 | 0.22 | 90 | 1011.2 |
| 20260504193058 | 61 | 62 | 2.6 | 8.7 | 0.00 | 0.22 | 0.22 | 90 | 1011.0 |
| 20260504191555 | 62 | 92 | 1.7 | 5.2 | 0.00 | 0.22 | 0.22 | 91 | 1010.8 |
| 20260504190059 | 62 | 51 | 1.7 | 5.2 | 0.00 | 0.22 | 0.22 | 91 | 1010.4 |
| 20260504184605 | 62 | 107 | 0.9 | 4.3 | 0.00 | 0.22 | 0.22 | 92 | 1010.0 |
| 20260504183100 | 62 | 173 | 1.7 | 7.0 | 0.00 | 0.22 | 0.22 | 92 | 1010.0 |
| 20260504181559 | 62 | 161 | 1.7 | 8.7 | 0.00 | 0.22 | 0.22 | 91 | 1010.2 |
| 20260504180058 | 62 | 142 | 2.6 | 6.1 | 0.00 | 0.22 | 0.22 | 91 | 1009.9 |
| 20260504174555 | 62 | 151 | 1.7 | 5.2 | 0.00 | 0.22 | 0.22 | 90 | 1009.8 |
| 20260504173053 | 62 | 171 | 4.3 | 7.8 | 0.01 | 0.22 | 0.22 | 90 | 1010.2 |
| 20260504171558 | 63 | 141 | 1.7 | 7.0 | 0.01 | 0.22 | 0.22 | 91 | 1010.2 |
| 20260504081558 | 66 | 224 | 2.6 | 6.1 | 0.00 | 0.00 | 0.00 | 73 | 1012.0 |
| 20260504070104 | 63 | 352 | 1.7 | 8.7 | 0.00 | 0.00 | 0.00 | 77 | 1011.9 |
| 20260504044603 | 57 | 0 | 1.7 | 7.0 | 0.00 | 0.00 | 0.00 | 90 | 1012.3 |
| 20260504043054 | 57 | 207 | 0.9 | 4.3 | 0.00 | 0.00 | 0.00 | 90 | 1012.4 |
| 20260504041556 | 58 | 0 | 0.0 | 4.3 | 0.00 | 0.00 | 0.00 | 90 | 1012.6 |
| 20260504040058 | 58 | 0 | 0.9 | 6.1 | 0.00 | 0.00 | 0.00 | 90 | 1012.5 |
| 20260504034614 | 58 | 223 | 2.6 | 5.2 | 0.00 | 0.00 | 0.00 | 88 | 1012.8 |
| 20260504033056 | 59 | 182 | 1.7 | 6.1 | 0.00 | 0.00 | 0.00 | 86 | 1013.1 |
| 20260504031552 | 59 | 286 | 1.7 | 3.5 | 0.00 | 0.00 | 0.00 | 86 | 1013.2 |
| 20260504030058 | 59 | 0 | 0.9 | 5.2 | 0.00 | 0.00 | 0.00 | 85 | 1013.1 |
| 20260504024553 | 59 | 0 | 0.0 | 5.2 | 0.00 | 0.00 | 0.00 | 85 | 1013.2 |
| 20260504023057 | 59 | 159 | 1.7 | 4.3 | 0.00 | 0.00 | 0.00 | 86 | 1013.4 |
| 20260504021557 | 59 | 186 | 1.7 | 8.7 | 0.00 | 0.00 | 0.00 | 85 | 1013.1 |
| 20260504020053 | 59 | 159 | 2.6 | 8.7 | 0.00 | 0.00 | 0.00 | 85 | 1013.3 |
| 20260504014611 | 59 | 134 | 2.6 | 8.7 | 0.00 | 0.00 | 0.00 | 86 | 1013.3 |
| 20260504013055 | 59 | 114 | 1.7 | 10.4 | 0.00 | 0.00 | 0.00 | 86 | 1013.3 |
| 20260504011558 | 59 | 144 | 3.5 | 11.3 | 0.00 | 0.00 | 0.00 | 88 | 1013.5 |
| 20260504010059 | 60 | 246 | 3.5 | 7.8 | 0.00 | 0.00 | 0.00 | 88 | 1013.6 |
| 20260504004552 | 60 | 245 | 4.3 | 10.4 | 0.00 | 0.00 | 0.00 | 86 | 1013.7 |
| 20260504003059 | 60 | 58 | 4.3 | 9.6 | 0.00 | 0.00 | 0.00 | 85 | 1013.5 |
| 20260504001556 | 60 | 159 | 3.5 | 10.4 | 0.00 | 0.00 | 0.00 | 85 | 1013.6 |
| 20260504000057 | 60 | 131 | 6.1 | 10.4 | 0.00 | 0.00 | 0.00 | 85 | 1013.8 |
| 20260503234551 | 60 | 143 | 3.5 | 7.8 | 0.00 | 0.00 | 0.00 | 85 | 1014.1 |
| 20260503233053 | 60 | 148 | 2.6 | 7.8 | 0.00 | 0.00 | 0.00 | 85 | 1014.2 |
| 20260503231554 | 60 | 182 | 2.6 | 7.0 | 0.00 | 0.00 | 0.00 | 85 | 1014.2 |
| 20260503230051 | 60 | 163 | 3.5 | 9.6 | 0.00 | 0.00 | 0.00 | 83 | 1014.5 |
| 20260503224556 | 60 | 148 | 3.5 | 7.8 | 0.00 | 0.00 | 0.00 | 84 | 1014.6 |
| 20260503223055 | 61 | 164 | 3.5 | 8.7 | 0.00 | 0.00 | 0.00 | 84 | 1014.9 |
| 20260503221554 | 61 | 188 | 1.7 | 6.1 | 0.00 | 0.00 | 0.00 | 84 | 1015.1 |
| 20260503220054 | 61 | 178 | 2.6 | 7.0 | 0.00 | 0.00 | 0.00 | 84 | 1015.1 |
| 20260503214552 | 60 | 136 | 2.6 | 7.8 | 0.00 | 0.00 | 0.00 | 85 | 1015.1 |
| 20260503213108 | 61 | 162 | 4.3 | 8.7 | 0.00 | 0.00 | 0.00 | 85 | 1015.1 |
| 20260503211556 | 61 | 210 | 3.5 | 8.7 | 0.00 | 0.00 | 0.00 | 84 | 1015.2 |
| 20260503210101 | 61 | 173 | 4.3 | 11.3 | 0.00 | 0.00 | 0.00 | 84 | 1015.3 |
| 20260503204555 | 61 | 188 | 3.5 | 8.7 | 0.00 | 0.00 | 0.00 | 85 | 1015.3 |
| 20260503203102 | 61 | 182 | 3.5 | 8.7 | 0.00 | 0.00 | 0.00 | 85 | 1015.4 |